EW4283 Weather Reports


time (UTC)temp
C
wind
direction
speed
KPH
gust
KPH
rain 1hr
cm
rain 24hr
cm
rain mn
cm
humidity
%
barometer
mb
20260507160040 17 211 11.3 20.9 0.00 0.00 0.00 46 1019.1
20260507154537 17 177 1.6 19.3 0.00 0.00 0.00 49 1019.1
20260507153030 16 228 3.2 14.5 0.00 0.00 0.00 49 1019.3
20260507151538 16 208 8.0 17.7 0.00 0.00 0.00 50 1019.5
20260507150026 15 240 4.8 16.1 0.00 0.00 0.00 52 1019.6
20260507144524 15 213 9.7 12.9 0.00 0.00 0.00 53 1019.9
20260507143021 15 212 8.0 14.5 0.00 0.00 0.00 56 1020.0
20260507141516 14 217 3.2 11.3 0.00 0.00 0.00 60 1020.3
20260507140017 13 212 4.8 11.3 0.00 0.00 0.00 64 1020.2
20260507134524 12 207 4.8 9.7 0.00 0.00 0.00 68 1020.2
20260507133008 12 203 1.6 4.8 0.00 0.00 0.00 76 1020.3
20260507131626 10 219 0.0 3.2 0.00 0.00 0.00 88 1020.1
20260507130057 8 166 0.0 0.0 0.00 0.00 0.00 95 1020.1
20260507124554 5 166 0.0 0.0 0.00 0.00 0.00 95 1020.0
20260507123049 4 167 0.0 0.0 0.00 0.00 0.00 94 1019.7
20260507121548 3 167 0.0 1.6 0.00 0.00 0.00 94 1019.7
20260507120048 2 127 0.0 0.0 0.00 0.00 0.00 93 1019.6
20260507114547 2 127 0.0 0.0 0.00 0.00 0.00 93 1019.4
20260507113046 2 127 0.0 0.0 0.00 0.00 0.00 93 1019.3
20260507111545 2 127 0.0 0.0 0.00 0.00 0.00 93 1019.3
20260507110059 2 127 0.0 0.0 0.00 0.00 0.00 93 1019.1
20260507104546 2 127 0.0 0.0 0.00 0.00 0.00 93 1019.2
20260507103045 2 102 0.0 0.0 0.00 0.00 0.00 93 1019.3
20260507101546 3 102 0.0 0.0 0.00 0.00 0.00 92 1019.3
20260507100039 3 102 0.0 0.0 0.00 0.00 0.00 92 1019.4
20260507094538 3 102 0.0 0.0 0.00 0.00 0.00 92 1019.4
20260507093036 3 102 0.0 0.0 0.00 0.00 0.00 92 1019.4
20260507091539 3 102 0.0 0.0 0.00 0.00 0.00 92 1019.2
20260507090040 3 102 0.0 0.0 0.00 0.00 0.00 91 1019.2
20260507084538 3 102 0.0 0.0 0.00 0.00 0.00 91 1019.1
20260507083037 3 102 0.0 0.0 0.00 0.00 0.00 90 1019.1
20260507081530 4 102 0.0 0.0 0.00 0.00 0.00 89 1019.3
20260507080030 5 102 0.0 0.0 0.00 0.00 0.00 90 1019.5
20260507074540 5 214 0.0 1.6 0.00 0.00 0.00 91 1019.9
20260507073029 4 214 0.0 1.6 0.00 0.00 0.00 91 1019.7
20260507071528 4 214 0.0 0.0 0.00 0.00 0.00 91 1019.4
20260507070027 4 214 0.0 1.6 0.00 0.00 0.00 91 1019.2
20260507064529 4 214 0.0 0.0 0.00 0.00 0.00 91 1019.3
20260507063028 4 214 0.0 0.0 0.00 0.00 0.00 90 1019.2
20260507061522 4 226 0.0 1.6 0.00 0.00 0.00 89 1019.1
20260507060023 5 239 0.0 1.6 0.00 0.00 0.00 89 1019.7
20260507054516 5 239 0.0 0.0 0.00 0.00 0.00 89 1020.1
20260507053015 5 239 0.0 0.0 0.00 0.00 0.00 88 1020.0
20260507051510 5 239 0.0 1.6 0.00 0.00 0.00 88 1019.7
20260507050006 5 239 0.0 0.0 0.00 0.00 0.00 87 1019.3
20260507044504 5 239 0.0 1.6 0.00 0.00 0.00 87 1019.2
20260507043002 6 239 0.0 1.6 0.00 0.00 0.00 86 1019.1
20260507041501 6 238 0.0 1.6 0.00 0.00 0.00 86 1018.9
20260507040104 6 14 0.0 1.6 0.00 0.00 0.00 85 1019.0
20260507034601 6 13 0.0 1.6 0.00 0.00 0.00 85 1019.1
20260507033054 6 84 0.0 0.0 0.00 0.00 0.00 83 1018.8
20260507031550 7 84 0.0 0.0 0.00 0.00 0.00 81 1018.7
20260507030049 7 84 0.0 0.0 0.00 0.00 0.00 79 1018.6
20260507024556 8 84 0.0 0.0 0.00 0.00 0.00 77 1018.6
20260507023047 9 84 0.0 0.0 0.00 0.00 0.00 73 1018.2
20260507021549 10 84 0.0 0.0 0.00 0.00 0.00 68 1018.1
20260507020052 11 84 0.0 0.0 0.00 0.00 0.00 66 1018.0
20260507014546 12 84 0.0 0.0 0.00 0.00 0.00 62 1017.8
20260507013146 13 84 0.0 3.2 0.00 0.00 0.00 59 1017.7
20260507011546 13 63 1.6 6.4 0.00 0.00 0.00 58 1017.6
20260507010054 14 54 3.2 8.0 0.00 0.00 0.00 54 1017.6
20260507004543 14 52 4.8 8.0 0.00 0.00 0.00 54 1017.5
20260507003041 14 51 3.2 8.0 0.00 0.00 0.00 53 1017.5
20260507001546 15 44 6.4 14.5 0.00 0.00 0.00 51 1017.3
20260507000040 15 54 4.8 14.5 0.00 0.00 0.00 48 1017.2
20260506234540 16 46 6.4 14.5 0.00 0.00 0.00 46 1017.0
20260506233043 16 85 6.4 17.7 0.00 0.00 0.00 47 1016.9
20260506231539 16 38 8.0 19.3 0.00 0.00 0.00 46 1016.8
20260506230043 16 63 9.7 19.3 0.00 0.00 0.00 46 1016.5
20260506224540 16 43 12.9 20.9 0.00 0.00 0.00 46 1016.4
20260506223042 16 42 11.3 24.1 0.00 0.00 0.00 45 1016.2
20260506221543 16 50 9.7 22.5 0.00 0.00 0.00 48 1016.0
20260506220045 16 37 11.3 22.5 0.00 0.00 0.00 48 1016.0
20260506214535 16 54 8.0 25.7 0.00 0.00 0.00 48 1016.0
20260506213035 16 68 9.7 19.3 0.00 0.00 0.00 46 1016.2
20260506211539 16 51 6.4 22.5 0.00 0.00 0.00 49 1016.3
20260506210034 16 65 14.5 25.7 0.00 0.00 0.00 49 1016.5
20260506204532 16 124 6.4 20.9 0.00 0.00 0.00 49 1016.5
20260506203031 16 56 8.0 19.3 0.00 0.00 0.00 51 1016.7
20260506201530 16 342 8.0 20.9 0.00 0.00 0.00 52 1016.9
20260506200029 15 8 8.0 20.9 0.00 0.00 0.00 49 1017.1
20260506194535 16 61 11.3 22.5 0.00 0.00 0.00 49 1017.2
20260506193032 16 82 4.8 20.9 0.00 0.00 0.00 51 1017.2
20260506191527 16 52 12.9 20.9 0.00 0.00 0.00 47 1017.3
20260506190028 16 44 14.5 27.4 0.00 0.00 0.00 50 1017.5
20260506184527 16 53 8.0 20.9 0.00 0.00 0.00 48 1017.7
20260506183025 16 87 6.4 22.5 0.00 0.00 0.00 49 1017.8
20260506181521 15 89 4.8 20.9 0.00 0.00 0.00 53 1017.8
20260506180021 15 72 9.7 22.5 0.00 0.00 0.00 50 1018.2
20260506174519 15 70 6.4 17.7 0.00 0.00 0.00 52 1018.2
20260506173016 15 37 8.0 24.1 0.00 0.00 0.00 54 1018.3
20260506171517 14 69 11.3 24.1 0.00 0.00 0.00 52 1018.3
20260506170114 15 113 3.2 22.5 0.00 0.00 0.00 56 1018.4
20260506164512 14 62 12.9 22.5 0.00 0.00 0.00 52 1018.6
20260506163010 14 213 4.8 19.3 0.00 0.00 0.00 55 1018.7
20260506161507 13 61 9.7 25.7 0.00 0.00 0.00 55 1018.7